Location: *
(47.2969°N, 10.2930°E)
Time: 01:36:35
(UTC+00:00)

COSMOS 1867 COOLANT - Visible Passes

Search period start: 24 October 2020 00:00
Search period end: 03 November 2020 00:00
Orbit: 775 x 797 km, 65.0° (Epoch: 23 October)

Date Brightness Start Highest point End Pass type
(mag) Time Alt. Az. Time Alt. Az. Time Alt. Az.
24 Oct ? 01:55:48 19° NNE 01:55:48 19° NNE 01:57:18 10° NE visible
24 Oct ? 03:36:26 20° NNW 03:36:26 20° NNW 03:40:25 10° NNE visible
25 Oct ? 01:24:40 12° NE 01:24:40 12° NE 01:25:06 10° NE visible
25 Oct ? 03:05:18 22° N 03:05:18 22° N 03:08:18 10° NNE visible
25 Oct ? 04:47:20 10° NNW 04:49:31 12° N 04:51:42 10° NNE visible
26 Oct ? 02:34:08 19° N 02:34:08 19° N 02:36:11 10° NNE visible
26 Oct ? 04:14:46 11° NW 04:16:54 13° N 04:19:23 10° NNE visible
27 Oct ? 02:02:57 15° NNE 02:02:57 15° NNE 02:04:04 10° NNE visible
27 Oct ? 03:43:35 14° NNW 03:44:19 14° NNW 03:47:09 10° NNE visible
28 Oct ? 01:31:45 11° NNE 01:31:45 11° NNE 01:31:56 10° NNE visible
28 Oct ? 03:12:23 15° NNW 03:12:23 15° NNW 03:14:59 10° NNE visible
28 Oct ? 04:55:29 10° NNW 04:57:41 12° N 04:59:54 10° NNE visible
29 Oct ? 02:41:10 15° N 02:41:10 15° N 02:42:50 10° NNE visible
29 Oct ? 04:23:02 10° NNW 04:25:04 12° N 04:27:06 10° NNE visible
30 Oct ? 02:09:57 13° NNE 02:09:57 13° NNE 02:10:43 10° NNE visible
30 Oct ? 03:50:35 10° NNW 03:52:27 12° N 03:54:28 10° NNE visible
31 Oct ? 03:19:22 12° NNW 03:19:49 12° N 03:22:01 10° NNE visible
31 Oct ? 05:02:29 10° NNW 05:05:46 16° NNE 05:09:02 10° ENE visible
01 Nov ? 02:48:09 12° N 02:48:09 12° N 02:49:41 10° NNE visible
01 Nov ? 04:30:19 10° NNW 04:33:12 14° NNE 04:36:04 10° NE visible
02 Nov ? 02:16:56 11° NNE 02:16:56 11° NNE 02:17:27 10° NNE visible
02 Nov ? 03:58:06 10° NNW 04:00:36 13° NNE 04:03:06 10° NE visible
